Location: Downe
(51.3167°N, 0.0500°E)
Time: 21:28:48
(UTC+00:00)

Lacrosse 5 - Pass Details

Date: 17 November 2019
Orbit: 715 x 724 km, 57.0° (Epoch: 30 November)

Event Time Altitude Azimuth Distance (km) Brightness Sun altitude
Exits shadow 06:21:53 11° 280° (W) 2,132 3.7 -9.1°
Maximum altitude 06:26:34 46° 352° (N) 971 2.4 -8.4°
Drops below altitude 10° 06:31:27 10° 66° (ENE) 2,206 5.1 -7.7°
Sets 06:33:55 0° 73° (ENE) 3,125 6.1 -7.3°
